Location: York
(31.8935°S, 116.7682°E)
Time: 11:22:49
(UTC+08:00)

Vanguard 2 Rocket - Visible Passes

Search period start: 13 June 2021 00:00
Search period end: 23 June 2021 00:00
Orbit: 554 x 3325 km, 32.9° (Epoch: 12 June)

Date Brightness Start Highest point End Pass type
(mag) Time Alt. Az. Time Alt. Az. Time Alt. Az.
13 Jun 11.3 18:27:37 10° W 18:39:21 20° NW 18:51:38 10° N visible
14 Jun 11.3 17:24:12 10° W 17:37:41 28° NW 17:53:09 10° NNE visible
15 Jun 11.6 18:48:34 10° WNW 18:53:00 11° NW 18:57:30 10° NNW visible
16 Jun 9.4 06:34:24 10° NNE 06:36:04 12° NE 06:37:55 10° ENE visible
16 Jun 11.5 17:40:58 10° WNW 17:51:20 18° NW 18:02:53 10° N visible
18 Jun 8.7 06:46:12 10° NNW 06:49:31 22° NE 06:53:41 10° E visible
19 Jun 9.1 05:49:27 10° NNE 05:50:27 11° NE 05:51:29 10° NE visible
21 Jun 8.4 06:00:59 10° NNW 06:04:04 21° NNE 06:07:32 10° E visible
22 Jun 8.7 05:03:34 10° NNE 05:04:52 11° NNE 05:06:12 10° NE visible
